Location: *
(28.3744°N, 81.5492°W)
Time: 03:38:39
(UTC+00:00)

ATLAS 2AS CENTAUR R/B - Pass Details

Date: 15 June 2025
Orbit: 1040 x 1170 km, 63.7° (Epoch: 11 July)

Event Time Altitude Azimuth Distance (km) Brightness Sun altitude
Exits shadow 04:47:15 40° 43° (NE) 1,603 3.7 -37.4°
Drops below altitude 10° 04:51:28 10° 33° (NNE) 2,963 5.5 -37.6°
Sets 04:54:06 0° 31° (NNE) 3,904 6.2 -37.7°
